Weather History for KTRK - November, 2012

Change the Weather History Date:

Tuesday, November 27, 2012

  Actual Average (KRNO) Record (KRNO)
Temperature  
Mean Temperature 34 °F 39 °F  
Max Temperature 51 °F 50 °F 70 °F (1946)
Min Temperature 17 °F 28 °F 7 °F (1948)
Degree Days  
Heating Degree Days 31 26  
Month to date heating degree days 588  
Since 1 July heating degree days 1024  
Cooling Degree Days 0 0  
Month to date cooling degree days 0  
Year to date cooling degree days 839  
Moisture  
Dew Point 22 °F    
Average Humidity 70    
Maximum Humidity 93    
Minimum Humidity 35    
Precipitation  
Precipitation 0.00 in 0.03 in 0.65 in (2004)
Month to date precipitation 0.73  
Year to date precipitation 6.28  
Snow  
Snow 0.00 in 0.20 in 4.50 in (2004)
Month to date snowfall 2.8  
Since 1 July snowfall 3.2  
Since 1 September snowfall 3.2  
Snow Depth -    
Sea Level Pressure  
Sea Level Pressure 30.17 in    
Wind  
Wind Speed 2 mph (South)    
Max Wind Speed 15 mph    
Max Gust Speed 20 mph    
Visibility 10 miles    
Events      
T = Trace of Precipitation, MM = Missing Value Source: NWS Daily Summary

Daily Weather History Graph

Daily Weather History Graph

Search for Another Location

Airport or City:

Trip Planner

Search our weather history database for the weather conditions in past years. The results will help you decide how hot, cold, wet, or windy it might be!

Date:

Astronomy

Nov. 27, 2012 Rise Set
Actual Time 6:57 AM PST 4:38 PM PST
Civil Twilight 6:28 AM PST 5:08 PM PST
Nautical Twilight 5:55 AM PST 5:41 PM PST
Astronomical Twilight 5:23 AM PST 6:13 PM PST
Moon 4:13 PM PST (11/27) 6:07 AM PST (11/27)
Length of Visible Light 10h 39m
Length of Day
9h 40m
Waxing Gibbous, 99% of the Moon is Illuminated
Nov 27
Waxing Gibbous
Nov 28
Full
Dec 6
Last Quarter
Dec 13
New
Dec 19
First Quarter

Hourly Weather History & Observations

Time (PST) Temp. Windchill Dew Point Humidity Pressure Visibility Wind Dir Wind Speed Gust Speed Precip Events Conditions
12:15 AM 23.0 °F - 19.4 °F 86% 30.20 in 10.0 mi Calm Calm - N/A   Clear
12:35 AM 24.8 °F - 19.4 °F 80% 30.20 in 10.0 mi Calm Calm - N/A   Clear
12:55 AM 23.0 °F - 19.4 °F 86% 30.20 in 10.0 mi Calm Calm - N/A   Clear
1:15 AM 21.2 °F - 17.6 °F 86% 30.20 in 10.0 mi Calm Calm - N/A   Clear
2:15 AM 19.4 °F 14.3 °F 17.6 °F 93% 30.21 in 10.0 mi NNW 3.5 mph - N/A   Clear
2:35 AM 21.2 °F - 17.6 °F 86% 30.21 in 10.0 mi Calm Calm - N/A   Clear
2:55 AM 19.4 °F - 15.8 °F 86% 30.21 in 10.0 mi Calm Calm - N/A   Clear
3:15 AM 19.4 °F - 15.8 °F 86% 30.20 in 10.0 mi Calm Calm - N/A   Clear
3:35 AM 19.4 °F 14.3 °F 15.8 °F 86% 30.20 in 10.0 mi SSE 3.5 mph - N/A   Clear
4:15 AM 19.4 °F 14.3 °F 17.6 °F 93% 30.20 in 10.0 mi South 3.5 mph - N/A   Clear
4:35 AM 19.4 °F - 15.8 °F 86% 30.21 in 10.0 mi Calm Calm - N/A   Clear
4:55 AM 17.6 °F - 15.8 °F 93% 30.21 in 10.0 mi Calm Calm - N/A   Clear
5:15 AM 17.6 °F - 15.8 °F 93% 30.21 in 10.0 mi Calm Calm - N/A   Clear
5:35 AM 17.6 °F - 14.0 °F 86% 30.21 in 10.0 mi Calm Calm - N/A   Clear
6:50 AM 19.4 °F - 15.8 °F 86% 30.22 in 10.0 mi Calm Calm - N/A   Mostly Cloudy
7:50 AM 23.0 °F - 19.4 °F 86% 30.22 in 10.0 mi Calm Calm - N/A   Mostly Cloudy
8:50 AM 26.6 °F - 23.0 °F 86% 30.23 in 10.0 mi Calm Calm - N/A   Mostly Cloudy
9:45 AM 32.0 °F - 26.6 °F 80% 30.23 in 10.0 mi Calm Calm - N/A   Mostly Cloudy
10:50 AM 35.6 °F - 24.8 °F 65% 30.21 in 10.0 mi Calm Calm - N/A   Mostly Cloudy
11:45 AM 42.8 °F - 26.6 °F 53% 30.19 in 10.0 mi Calm Calm - N/A   Mostly Cloudy
12:45 PM 48.2 °F - 30.2 °F 50% 30.17 in 10.0 mi Calm Calm - N/A   Mostly Cloudy
1:55 PM 51.8 °F - 24.8 °F 35% 30.14 in 10.0 mi SW 6.9 mph - N/A   Mostly Cloudy
2:55 PM 50.0 °F - 26.6 °F 40% 30.14 in 10.0 mi SW 8.1 mph - N/A   Mostly Cloudy
4:45 PM 46.4 °F 41.5 °F 24.8 °F 43% 30.14 in 10.0 mi SW 10.4 mph - N/A   Mostly Cloudy
4:55 PM 46.4 °F 40.1 °F 24.8 °F 43% 30.14 in 10.0 mi SSW 15.0 mph 19.6 mph N/A   Clear
5:15 PM 46.4 °F 41.5 °F 24.8 °F 43% 30.14 in 10.0 mi SSW 10.4 mph - N/A   Clear
5:35 PM 46.4 °F 41.5 °F 23.0 °F 40% 30.13 in 10.0 mi South 10.4 mph 17.3 mph N/A   Clear
5:55 PM 42.8 °F 39.3 °F 24.8 °F 49% 30.13 in 10.0 mi South 5.8 mph - N/A   Clear
6:15 PM 42.8 °F 39.3 °F 23.0 °F 46% 30.13 in 10.0 mi South 5.8 mph - N/A   Clear
6:35 PM 44.6 °F 42.2 °F 23.0 °F 43% 30.14 in 10.0 mi SSW 4.6 mph - N/A   Clear
6:55 PM 44.6 °F 42.2 °F 23.0 °F 43% 30.14 in 10.0 mi SW 4.6 mph - N/A   Clear
7:15 PM 39.2 °F - 24.8 °F 56% 30.14 in 10.0 mi Calm Calm - N/A   Clear
7:35 PM 37.4 °F - 24.8 °F 60% 30.14 in 10.0 mi Calm Calm - N/A   Clear
7:55 PM 35.6 °F 31.7 °F 24.8 °F 65% 30.14 in 10.0 mi SSW 4.6 mph - N/A   Clear
8:15 PM 32.0 °F - 24.8 °F 75% 30.13 in 10.0 mi Calm Calm - N/A   Clear
8:35 PM 32.0 °F - 24.8 °F 75% 30.13 in 10.0 mi Calm Calm - N/A   Clear
8:55 PM 35.6 °F - 24.8 °F 65% 30.13 in 10.0 mi Calm Calm - N/A   Clear
9:15 PM 32.0 °F - 24.8 °F 75% 30.14 in 10.0 mi Calm Calm - N/A   Clear
9:35 PM 30.2 °F - 24.8 °F 80% 30.13 in 10.0 mi Calm Calm - N/A   Scattered Clouds
9:55 PM 32.0 °F 27.5 °F 24.8 °F 75% 30.14 in 10.0 mi East 4.6 mph - N/A   Partly Cloudy
10:15 PM 28.4 °F - 24.8 °F 86% 30.14 in 10.0 mi Calm Calm - N/A   Clear
10:35 PM 28.4 °F 24.6 °F 23.0 °F 80% 30.15 in 10.0 mi SSE 3.5 mph - N/A   Clear
10:55 PM 28.4 °F 24.6 °F 24.8 °F 86% 30.14 in 10.0 mi South 3.5 mph - N/A   Clear
11:15 PM 33.8 °F 29.6 °F 23.0 °F 65% 30.14 in 10.0 mi SSE 4.6 mph - N/A   Clear
11:35 PM 35.6 °F - 21.2 °F 56% 30.13 in 10.0 mi Calm Calm - N/A   Clear
11:55 PM 32.0 °F 28.7 °F 19.4 °F 60% 30.13 in 10.0 mi SSW 3.5 mph - N/A   Clear